Regional Weather Roundup
Issued by NWS

Home | Current Version | Previous Version | Text Only | Print | Product List | Glossary Off
Versions: 1 2 3 4 5 6 7 8 9 10 11 12 13 14 15 16 17 18 19 20 21 22 23 24 25 26 27 28 29 30 31 32 33 34 35 36 37 38 39 40 41 42 43 44 45 46 47 48 49 50

000
ASUS43 KFSD 221410
RWRSD

WEATHER ROUNDUP FOR SOUTH DAKOTA
NATIONAL WEATHER SERVICE SIOUX FALLS SD
800 AM CST MON DEC 22 2014

NOTE: "FAIR" INDICATES FEW OR NO CLOUDS BELOW 12,000 FEET WITH NO
SIGNIFICANT WEATHER AND/OR OBSTRUCTIONS TO VISIBILITY.


SDZ001>005-009-010-012>017-221500-
NORTHWEST AND NORTH CENTRAL SOUTH DAKOTA

CITY           SKY/WX    TMP DP  RH WIND       PRES   REMARKS
BUFFALO          N/A     36  28  73 NW28G36   29.45S
FAITH            N/A     37  29  72 NW22G35   29.47R
MOBRIDGE       CLOUDY    33  31  92 N6        29.41S WCI  28
$$

SDZ012>016-024>037-041>051-057-063-072>074-221500-
SOUTHWEST AND SOUTH CENTRAL SOUTH DAKOTA

CITY           SKY/WX    TMP DP  RH WIND       PRES   REMARKS
RAPID CTY ARPT MOCLDY    40  22  48 NW24G39   29.55R
PIERRE         CLOUDY    37  33  85 NW16      29.45R
CUSTER         MOCLDY    30  19  63 W12G31    29.55F WCI  20
PHILIP         CLOUDY    39  30  70 W18       29.52R
PINE RIDGE     MOCLDY    35  28  75 W12       29.60R WCI  27
SPEARFISH      MOCLDY    36  25  64 W23G35    29.58S
WINNER         CLOUDY    38  35  89 W14       29.48S
$$

SDZ004>011-016>023-039-040-221500-
NORTHEAST SOUTH DAKOTA

CITY           SKY/WX    TMP DP  RH WIND       PRES   REMARKS
ABERDEEN       FOG       33  32  96 S3        29.43S VSB 1/4
WATERTOWN      CLOUDY    36  35  96 SE7       29.43S
SISSETON         N/A     35  35 100 S7        29.46S WCI  29
$$

SDZ017-020-022-023-036>040-048>070-221500-
SOUTHEAST SOUTH DAKOTA

CITY           SKY/WX    TMP DP  RH WIND       PRES   REMARKS
SIOUX FALLS    LGT RAIN  40  39  97 S10       29.45F
HURON          CLOUDY    29  27  92 NW6       29.44S WCI  23
CHAMBERLAIN    DRIZZLE   34  33  99 W7        29.45S WCI  28
MITCHELL       CLOUDY    34  31  88 W7        29.45S WCI  28
YANKTON        CLOUDY    37  36  93 SW5       29.47S
$$

ABBREVIATIONS USED IN REMARKS
   TC - TEMPERATURE IN CELSIUS
  WCI - WIND CHILL INDEX
   HX - HEAT INDEX
  VSB - VISIBILITY



USA.gov is the U.S. government's official web portal to all federal, state and local government web resources and services.